Location: Gad�tanya
(48.0500°N, 20.8500°E)
Time: 11:45:25
(UTC+00:00)

PSLV R/B - Pass Details

Date: 05 July 2020
Orbit: 598 x 701 km, 97.9° (Epoch: 14 August)

Event Time Altitude Azimuth Distance (km) Brightness Sun altitude
Rises 23:28:42 0° 9° (N) 2,857 8.7 -18.5°
Reaches altitude 10° 23:30:53 10° 6° (N) 1,952 7.4 -18.4°
Maximum altitude 23:35:02 57° 288° (WNW) 717 3.8 -18.3°
Enters shadow 23:36:36 34° 227° (SW) 997 4.2 -18.2°
